User: anonymous   Login
Location: Charbonni�res
(45.9952°N, 2.9982°E)
Time: 23:09:05
(UTC+00:00)
Language:

FENGYUN 1C DEB - Orbit

View from above orbital plane
View from above orbital plane
View from above satellite
View from above satellite

Ground track
Ground track

The orbit data is extracted from the following two-line orbital elements,

1 36678U 99025DYY 21172.32030779  .00000131  00000-0  55505-4 0  9998
2 36678  98.2856 202.8037 0160581 206.5287 152.7615 14.33558716415317
Epoch (UTC): 21 June 2021 07:41:14
Eccentricity: 0.0160581
inclination: 98.2856°
perigee height: 665 km
apogee height: 895 km
right ascension of ascending node: 202.8037°
argument of perigee: 206.5287°
revolutions per day: 14.33558716
mean anomaly at epoch: 152.7615°
orbit number at epoch: 41531

The dashed part of the orbit path shows where the satellite is in the earth's shadow,  

DLR